This demonstration page uses our WeatherBlox Daily Observations layout. Learn more.

Left ArrowRight Arrow

47.50024, -111.30081

Hourly Observations for May 24, 2021

Temp ( °F °C ) Dew Point ( °F °C ) Humidity (%) Winds ( mph kmh ) Pressure ( in mb ) Visibility ( mi km ) Precip ( " mm )
12:53 am 00:53 Cloudy with Light Rain 43 6.1 37 2.8 80 80 SW 14 22 29.78 1008 10 16 0.02 0.51
1:53 am 01:53 Cloudy 44 6.7 37 2.8 76 76 SW 17 28 29.73 1007 10 16 0.00 0.00
2:53 am 02:53 Cloudy 45 7.2 37 2.8 74 74 SW 22 35 29.70 1006 10 16 0.00 0.00
3:53 am 03:53 Cloudy 46 7.8 36 2.2 68 68 SW 20 31 29.69 1005 10 16 0.00 0.00
4:53 am 04:53 Cloudy 47 8.3 37 2.8 69 69 SW 21 33 29.67 1005 10 16 0.00 0.00
5:53 am 05:53 Cloudy 47 8.3 37 2.8 69 69 SW 18 30 29.66 1004 10 16 0.00 0.00
6:53 am 06:53 Cloudy 48 8.9 37 2.8 66 66 SW 22 35 29.65 1004 10 16 0.00 0.00
7:53 am 07:53 Cloudy 50 10 37 2.8 61 61 SW 23 37 29.66 1004 10 16 0.00 0.00
8:53 am 08:53 Cloudy 51 10.6 36 2.2 56 56 SW 25 41 29.68 1005 10 16 0.00 0.00
9:53 am 09:53 Cloudy 51 10.6 36 2.2 56 56 SW 23 37 29.70 1006 10 16 0.00 0.00
10:53 am 10:53 Cloudy 54 12.2 36 2.2 51 51 WSW 37 59 29.67 1005 10 16 0.00 0.00
11:53 am 11:53 Mostly Cloudy 56 13.3 35 1.7 46 46 WSW 37 59 29.66 1004 10 16 0.00 0.00
12:53 pm 12:53 Mostly Cloudy 57 13.9 36 2.2 45 45 WSW 40 65 29.67 1005 10 16 0.00 0.00
1:53 pm 13:53 Sunny 59 15 36 2.2 42 42 SW 39 63 29.67 1005 10 16 0.00 0.00
2:53 pm 14:53 Mostly Cloudy 58 14.4 36 2.2 44 44 WSW 38 61 29.70 1006 10 16 0.00 0.00
3:53 pm 15:53 Cloudy 56 13.3 35 1.7 46 46 SW 29 46 29.72 1006 10 16 0.00 0.00
4:53 pm 16:53 Mostly Cloudy 56 13.3 35 1.7 46 46 SW 36 57 29.72 1006 10 16 0.00 0.00
5:53 pm 17:53 Mostly Cloudy 55 12.8 36 2.2 49 49 SW 26 43 29.77 1008 10 16 0.00 0.00
6:53 pm 18:53 Cloudy 55 12.8 36 2.2 49 49 SW 25 41 29.78 1008 10 16 0.00 0.00
7:53 pm 19:53 Cloudy 53 11.7 37 2.8 55 55 SW 23 37 29.78 1009 10 16 0.00 0.00
8:53 pm 20:53 Cloudy 52 11.1 36 2.2 55 55 SW 22 35 29.79 1009 10 16 0.00 0.00
9:53 pm 21:53 Cloudy 51 10.6 37 2.8 59 59 SW 17 28 29.83 1010 10 16 0.00 0.00
10:53 pm 22:53 Cloudy with Light Rain 49 9.4 39 3.9 69 69 NNW 16 26 29.89 1012 10 16 0.00 0.00
11:53 pm 23:53 Cloudy with Light Rain 47 8.3 40 4.4 77 77 NW 9 15 29.91 1013 10 16 0.00 0.00

Powered by AerisWeather